Weather Roundup
Issued by NWS

Home | Current Version | Previous Version | Graphics & Text | Print | Product List | Glossary Off
Versions: 1 2 3 4 5 6 7 8 9 10 11 12 13 14 15 16 17 18 19 20 21 22 23 24 25 26 27 28 29 30 31 32 33 34 35 36 37 38 39 40 41 42 43 44 45 46 47 48 49 50

663
NZUS93 KARX 241610
HRRWXR

CURRENT HOURLY OBSERVATIONS ACROSS
MUCH OF THE UPPER MISSISSIPPI VALLEY
NATIONAL WEATHER SERVICE LA CROSSE WI
1100 AM CDT MON APR 24 2017


...SOUTHEAST MINNESOTA...


CITY           SKY/WX    TMP DP  RH WIND       PRES   REMARKS
ROCHESTER      CLOUDY    63  33  32 S24G35    29.82F
ROCHESTER/MAYO FAIR      63  32  31 S13G33    29.81F
WINONA         CLOUDY    61  41  48 E8        29.85F
AUSTIN         MOSUNNY   63  34  34 S18G29    29.80F
ALBERT LEA     CLOUDY    63  30  29 S18G25    29.77F
DODGE CENTER   CLOUDY    61  36  39 S26G33    29.80F
PRESTON        PTSUNNY   61  33  34 S21G28    29.83F
OWATONNA       CLOUDY    63  34  34 S21G28    29.76F
FARIBAULT      CLOUDY    63  34  34 S23G31    29.76F
$$

...ELSEWHERE IN MINNESOTA...


CITY           SKY/WX    TMP DP  RH WIND       PRES   REMARKS
MINNEAPOLIS    CLOUDY    62  33  33 S17       29.75F
INTNL FALLS    CLOUDY    33  26  75 E13       29.82F WCI  24
DULUTH         PTSUNNY   37  28  70 E23G33    29.83F WCI  26
RED WING       CLOUDY    66  28  24 S17G28    29.78F
REDWOOD FALLS  CLOUDY    60  34  37 S23G36    29.64F
MANKATO        CLOUDY    63  33  32 S26G37    29.71F
WORTHINGTON    CLOUDY    60  33  36 S32G40    29.62F
FAIRMONT       CLOUDY    64  33  31 S35G44    29.69F
$$

...SOUTHWEST WISCONSIN...


CITY           SKY/WX    TMP DP  RH WIND       PRES   REMARKS
LA CROSSE      PTSUNNY   63  39  41 S10       29.87F
PRAIRIE DU CHI CLOUDY    65  27  23 SE12G24   29.89F
BOSCOBEL       CLOUDY    66  32  28 S10       29.92F
LONE ROCK      CLOUDY    64  33  31 S9        29.93F
PLATTEVILLE    PTSUNNY   65  33  30 S17       29.94F
FORT MC COY    CLOUDY    61  36  38 S9G18     29.90F
CAMP DOUGLAS   CLOUDY    61  36  39 SE10      29.91F
MAUSTON-NEW LI PTSUNNY   60  36  41 SE9       29.92F
VIROQUA        FAIR      61  35  37 S9        29.90F
WIS DELLS      PTSUNNY   60  34  37 S12G17    29.94F
$$

...ELSEWHERE IN WISCONSIN...


CITY           SKY/WX    TMP DP  RH WIND       PRES   REMARKS
MILWAUKEE      MOSUNNY   55  44  66 E8        30.01F
MADISON        PTSUNNY   61  38  42 S13       29.96F
GREEN BAY      CLOUDY    55  43  63 VRB5      30.00F
EAU CLAIRE     MOSUNNY   59  37  44 SE12      29.84F
BLACK RVR FLS  FAIR      58  34  40 SE5       29.90F
MEDFORD        MOSUNNY   50  36  58 SE9       29.91F
WAUSAU         MOSUNNY   52  34  50 SE9       29.94F
WIS RAPIDS     CLOUDY    58  35  42 S8        29.95F
MARSHFIELD     PTSUNNY   54  35  48 S10       29.91F
RICE LAKE      SUNNY     54  36  50 SE10G18   29.85F
$$

...NORTHEAST IOWA...


CITY           SKY/WX    TMP DP  RH WIND       PRES   REMARKS
WATERLOO       SUNNY     68  29  23 S28G36    29.84F
DUBUQUE        CLOUDY    65  33  30 S20G29    29.93F
DECORAH        CLOUDY    63  34  34 S13G24    29.85F
MASON CITY     MOSUNNY   65  33  30 S28G38    29.80F
CHARLES CITY   PTSUNNY   66  28  24 S24G37    29.83F
OELWEIN        MOSUNNY   68  28  22 S25G36    29.86F
$$

...ELSEWHERE IN IOWA...


CITY           SKY/WX    TMP DP  RH WIND       PRES   REMARKS
DES MOINES     CLOUDY    68  31  25 S26G36    29.81F
IOWA CITY      SUNNY     69  37  30 S21G31    29.91F
FORT DODGE     PTSUNNY   64  34  32 S24G33    29.78F
MARSHALLTOWN   SUNNY     67  32  27 S28G35    29.82F
CEDAR RAPIDS   SUNNY     67  34  29 S20G31    29.88F
$$

...NORTHERN ILLINOIS...


CITY           SKY/WX    TMP DP  RH WIND       PRES   REMARKS
CHICAGO-OHARE  PTSUNNY   66  35  31 SE10      29.99F
CHICAGO-MIDWAY PTSUNNY   66  33  29 E10       30.00F
MOLINE         CLOUDY    69  34  27 SE14G21   29.93F
ROCKFORD       CLOUDY    67  39  35 S12       29.98F
PEORIA         SUNNY     69  26  20 S10       29.96F
$$

NOTE: "FAIR" INDICATES FEW OR NO CLOUDS BELOW 12,000 FEET WITH NO
SIGNIFICANT WEATHER AND/OR OBSTRUCTIONS TO VISIBILITY. WIND
SPEEDS ARE IN MILES-PER-HOUR.




USA.gov is the U.S. government's official web portal to all federal, state and local government web resources and services.